Location: Brachbach
(49.1847°N, 9.7240°E)
Time: 07:32:04
(UTC+00:00)

FO-29 - Pass Details

Date: 15 March 2026
Orbit: 801 x 1320 km, 98.5° (Epoch: 17 April)

Event Time Altitude Azimuth Distance (km) Brightness Sun altitude
Rises 22:47:26 0° 6° (N) 4,049 13.5 -41.8°
Reaches altitude 10° 22:51:48 10° 340° (NNW) 3,184 12.8 -42.0°
Maximum altitude 22:54:40 13° 317° (NW) 3,030 12.5 -42.1°
Drops below altitude 10° 22:57:36 10° 294° (WNW) 3,282 12.5 -42.1°
Sets 23:02:17 0° 269° (W) 4,300 12.9 -42.3°
